DELTA 1 DEB, 21297

Orbit data source: Space-Track

DELTA 1 DEB, 21297 is space debris in SSO originally from a launch on Thu, 12 Jun 1975 UTC launched from the Air Force Western Test Range (AFWTR). Debris objects in space refer to the collection of defunct objects orbiting the Earth. Examples of debris include non-operational satellites, rocket bodies, and fragments generated from explosions, collisions, or faulty payload assembly.

Loading next visibility...
Identifier
21297, 1975-052AJ
Orbit
SSO
Last TLE update
7 hours ago
Origin
Manufacturer
Unknown
Mission
Spacecraft
Bus & Motor
Unknown
Mass
Unknown
Launch date (UTC)
1975-06-12 (50 years ago)
Launch vehicle
Unknown
Launch site
Air Force Western Test Range (AFWTR)
Object type
Payload
Rocket body
Debris
Shape & HBR
Unknown
Radar Cross Section
Medium (>0.1 m² and <1 m²)

Expand to show TLE details & history

TLE from 7 hours ago
0 DELTA 1 DEB
1 21297U 75052AJ  25181.81781483  .00000039  00000-0  16142-3 0  9996
2 21297  99.6951  25.3423 0071338  93.6348 279.1421 13.33199182659372
Epoch: 2025-06-30T19:37Z
TLE epoch observation values (Epoch: 2025-06-30T19:37:39.201Z)
Latitude
11.75374°
Longitude
169.78005°
Altitude
1,128.585 km
Speed
7.293 km/s
True Right ascension
01h 33m 15s
True Declination
11° 41' 19"
Sunlit
Object was in daylight at epoch
Visualization orbit readout
Latitude
51.41758°
Longitude
159.79712°
Altitude
1,101.989 km
Speed
7.326 km/s
Apparent Right ascension
01h 47m 31s
Apparent Declination
10° 39' 23"
Sunlit
Object is in daylight
Visualization observer readout
Local Sidereal Time
14:39:11
Azimuth
16.191° NNE
Elevation
-38.027°
Doppler factor
1
Orbital elements
Apogee altitude
1,185.62 km
Perigee altitude
1,078.468 km
Semi-major axis
7,510.181 km
Eccentricity
0.00713
Inclination
99.6951°
RAAN
25.3423°
Arg. of periapsis
93.6348°
True anomaly
Unknown
Mean anomaly
279.1421°
Eccentric anomaly
Unknown
Mean motion
3.33478 °/min
Orbital period
107.95 mins
BSTAR
0.00016142
Loading maneuver chart data...
Loading SW <> Apogee altitude chart data...
Loading historical data...
Loading historical data...
Loading historical data...
Loading historical data...
Loading historical data...
Loading historical data...
Loading historical data...

DELTA 1 DEB Visibility forecast

Observer location: undefined°, undefined°

Span
Click to sort rows by Start time (UTC) header in descending order
Start Az.
Max El. time (UTC)
Max El. Az.
Max El.
End time (UTC)
End Az.
12 mins2025-07-01 03:20:57.451Z359.634° N2025-07-01 03:26:57.451Z290.389° WNW33.15°2025-07-01 03:32:57.451Z226.617° WSW
7 mins2025-07-01 11:57:57.451Z90.322° ESE2025-07-01 12:00:57.451Z57.646° ENE19.305°2025-07-01 12:04:57.451Z17.747° NNE
12 mins2025-07-01 13:40:57.451Z173.204° S2025-07-01 13:46:57.451Z278.169° WNW43.4°2025-07-01 13:52:57.451Z340.804° N
6 mins2025-07-02 01:02:57.451Z66.316° ENE2025-07-02 01:04:57.451Z87.328° E17.315°2025-07-02 01:08:57.451Z127.458° SE
12 mins2025-07-02 02:46:57.451Z9.124° NNE2025-07-02 02:51:57.451Z314.175° NW43.268°2025-07-02 02:58:57.451Z205.469° SW
|